Historique des stations

Station météo de Culan

Altitude de la station : 276 m







Données météorologiques pour le 02/12/2021
Date
Heure
Températures Humidité Point de rosée Vitesse
du vent
Direction Rafales Windchill Pression Pluviométrie
Cumul
Date
Heure
Températures Humidité Point de rosée Vitesse
du vent
Direction Rafales Windchill Pression Pluviométrie
Cumul
02/12/2021 18:012.9 °C88 %1.1 °C-NO13 km/h2.8 1012 hPa1.4 mm
02/12/2021 17:593.0 °C88 %1.1 °C-NO29 km/h2.8 1011 hPa1.4 mm
02/12/2021 17:463.2 °C87 %1.1 °C-NO16 km/h3.3 1011 hPa1.4 mm
02/12/2021 17:443.2 °C87 %1.1 °C-ONO29 km/h3.3 1011 hPa1.4 mm
02/12/2021 17:313.3 °C87 %1.7 °C-NO6 km/h3.3 1011 hPa1.4 mm
02/12/2021 17:293.3 °C86 %1.1 °C-O29 km/h3.3 1011 hPa1.4 mm
02/12/2021 17:163.3 °C87 %1.1 °C-NO2 km/h3.3 1011 hPa1.4 mm
02/12/2021 17:143.3 °C87 %1.1 °C-NNO29 km/h3.3 1011 hPa1.4 mm
02/12/2021 17:013.2 °C87 %1.1 °C---3.3 1010 hPa1.4 mm
02/12/2021 16:593.2 °C87 %1.1 °C-ONO29 km/h3.3 1010 hPa1.4 mm
02/12/2021 16:463.3 °C86 %1.1 °C-ONO5 km/h3.3 1010 hPa1.4 mm
02/12/2021 16:443.4 °C86 %1.1 °C-ONO29 km/h3.3 1010 hPa1.4 mm
02/12/2021 16:313.7 °C85 %1.7 °C---3.9 1010 hPa1.4 mm
02/12/2021 16:293.7 °C85 %1.7 °C-ONO29 km/h3.9 1010 hPa1.4 mm
02/12/2021 16:164.0 °C85 %1.7 °C---3.9 1010 hPa1.4 mm
02/12/2021 16:124.0 °C85 %1.7 °C-O29 km/h3.9 1010 hPa1.4 mm
02/12/2021 16:014.1 °C84 %1.7 °C-ONO2 km/h3.9 1010 hPa1.4 mm
02/12/2021 15:594.1 °C84 %1.7 °C-NO29 km/h3.9 1010 hPa1.4 mm
02/12/2021 15:464.2 °C83 %1.7 °C---4.4 1010 hPa1.4 mm
02/12/2021 15:444.2 °C83 %1.7 °C-ONO29 km/h4.4 1010 hPa1.4 mm
02/12/2021 15:314.3 °C83 %1.7 °C-NO2 km/h4.4 1010 hPa1.4 mm
02/12/2021 15:294.3 °C82 %1.7 °C-NO29 km/h4.4 1010 hPa1.4 mm
02/12/2021 15:164.4 °C82 %1.7 °C---4.4 1010 hPa1.4 mm
02/12/2021 15:144.4 °C81 %1.7 °C-ONO29 km/h4.4 1010 hPa1.4 mm
02/12/2021 15:014.6 °C82 %1.7 °C-NO6 km/h4.4 1010 hPa1.4 mm
02/12/2021 14:594.6 °C82 %1.7 °C-NO29 km/h4.4 1010 hPa1.4 mm
02/12/2021 14:464.8 °C82 %2.2 °C-NO5 km/h5.0 1010 hPa1.4 mm
02/12/2021 14:444.8 °C82 %2.2 °C-NO29 km/h5.0 1010 hPa1.4 mm
02/12/2021 14:314.7 °C82 %1.7 °C---4.4 1010 hPa1.4 mm
02/12/2021 14:294.7 °C82 %1.7 °C-NO29 km/h4.4 1010 hPa1.4 mm
02/12/2021 14:164.4 °C83 %1.7 °C---4.4 1010 hPa1.4 mm
02/12/2021 14:144.4 °C82 %1.7 °C-NO29 km/h4.4 1010 hPa1.4 mm
02/12/2021 14:014.6 °C83 %1.7 °C-NO13 km/h4.4 1010 hPa1.4 mm
02/12/2021 13:594.6 °C83 %1.7 °C-NNO29 km/h4.4 1010 hPa1.4 mm
02/12/2021 13:464.6 °C82 %1.7 °C-NNO6 km/h4.4 1010 hPa1.4 mm
02/12/2021 13:444.6 °C82 %1.7 °C-NO29 km/h4.4 1010 hPa1.4 mm
02/12/2021 13:314.6 °C84 %2.2 °C6 km/hNNO10 km/h2.8 1010 hPa1.4 mm
02/12/2021 13:294.6 °C83 %1.7 °C-NO29 km/h4.4 1010 hPa1.4 mm
02/12/2021 13:164.6 °C83 %2.2 °C-NNO5 km/h4.4 1010 hPa1.4 mm
02/12/2021 13:144.6 °C83 %2.2 °C-NNO29 km/h4.4 1010 hPa1.4 mm
02/12/2021 13:014.6 °C84 %2.2 °C-N2 km/h4.4 1010 hPa1.4 mm
02/12/2021 12:594.6 °C83 %1.7 °C-NO29 km/h4.4 1010 hPa1.4 mm
02/12/2021 12:464.4 °C83 %1.7 °C-NO13 km/h4.4 1010 hPa1.4 mm
02/12/2021 12:444.4 °C83 %1.7 °C-N29 km/h4.4 1010 hPa1.4 mm
02/12/2021 12:314.3 °C85 %2.2 °C-NNO11 km/h4.4 1010 hPa1.4 mm
02/12/2021 12:294.2 °C85 %2.2 °C-NO29 km/h4.4 1010 hPa1.4 mm
02/12/2021 12:163.7 °C85 %1.7 °C-N29 km/h3.9 1010 hPa1.4 mm
02/12/2021 12:143.7 °C85 %1.7 °C-NNO29 km/h3.9 1010 hPa1.4 mm
02/12/2021 12:013.9 °C87 %2.2 °C6 km/hNNO14 km/h2.2 1010 hPa1.4 mm
02/12/2021 11:593.8 °C87 %1.7 °C-N23 km/h3.9 1010 hPa1.4 mm
02/12/2021 11:463.7 °C88 %2.2 °C-N18 km/h3.9 1010 hPa1.4 mm
02/12/2021 11:443.7 °C88 %1.7 °C-N23 km/h3.9 1010 hPa1.4 mm
02/12/2021 11:314.0 °C88 %2.2 °C3 km/hONO23 km/h2.8 1010 hPa1.4 mm
02/12/2021 11:294.1 °C88 %2.2 °C-NNO23 km/h3.9 1010 hPa1.4 mm
02/12/2021 11:163.9 °C90 %2.8 °C-NNO2 km/h3.9 1010 hPa1.4 mm
02/12/2021 11:143.9 °C89 %2.2 °C-N21 km/h3.9 1009 hPa1.4 mm
02/12/2021 11:013.8 °C89 %2.2 °C-NNO14 km/h3.9 1009 hPa1.4 mm
02/12/2021 10:593.8 °C89 %2.2 °C-NO21 km/h3.9 1009 hPa1.4 mm
02/12/2021 10:463.7 °C92 %2.8 °C-NO6 km/h3.9 1009 hPa1.4 mm
02/12/2021 10:443.7 °C92 %2.8 °C-NNO21 km/h3.9 1009 hPa1.4 mm
02/12/2021 10:313.6 °C94 %2.8 °C11 km/hNNO16 km/h1.1 1009 hPa1.4 mm
02/12/2021 10:293.6 °C93 %2.8 °C-NO21 km/h3.3 1008 hPa1.4 mm
02/12/2021 10:163.6 °C94 %2.8 °C-NNO6 km/h3.3 1008 hPa1.4 mm
02/12/2021 10:133.6 °C94 %2.8 °C-NNO21 km/h3.3 1008 hPa1.4 mm
02/12/2021 10:013.6 °C95 %2.8 °C-N5 km/h3.3 1008 hPa1.4 mm
02/12/2021 09:593.6 °C95 %2.8 °C-N21 km/h3.3 1008 hPa1.4 mm
02/12/2021 09:463.6 °C95 %2.8 °C-N2 km/h3.9 1008 hPa1.4 mm
02/12/2021 09:443.7 °C95 %2.8 °C-N21 km/h3.9 1008 hPa1.4 mm
02/12/2021 09:313.7 °C95 %2.8 °C-NNE10 km/h3.9 1008 hPa1.4 mm
02/12/2021 09:303.7 °C95 %2.8 °C-N21 km/h3.9 1008 hPa1.4 mm
02/12/2021 09:163.8 °C95 %3.3 °C-N2 km/h3.9 1007 hPa1.2 mm
02/12/2021 09:153.8 °C95 %3.3 °C-NNO21 km/h3.9 1007 hPa1.2 mm
02/12/2021 09:013.8 °C96 %3.3 °C3 km/hN14 km/h2.8 1007 hPa1.2 mm
02/12/2021 08:593.8 °C96 %3.3 °C-NO21 km/h3.9 1007 hPa1.2 mm
02/12/2021 08:463.8 °C95 %3.3 °C-NO3 km/h3.9 1007 hPa1.2 mm
02/12/2021 08:453.7 °C95 %2.8 °C-NO21 km/h3.9 1007 hPa1.2 mm
02/12/2021 08:313.7 °C95 %2.8 °C---3.9 1007 hPa1.2 mm
02/12/2021 08:303.7 °C95 %2.8 °C-NO21 km/h3.9 1007 hPa1.2 mm
02/12/2021 08:163.7 °C95 %2.8 °C-NO21 km/h3.9 1007 hPa1 mm
02/12/2021 08:153.8 °C95 %3.3 °C-NO21 km/h3.9 1007 hPa1 mm
02/12/2021 08:023.9 °C95 %3.3 °C-NO2 km/h3.9 1006 hPa0.6 mm
02/12/2021 08:003.9 °C95 %3.3 °C-NO10 km/h3.9 1006 hPa0.6 mm
02/12/2021 07:464.0 °C95 %3.3 °C-ONO2 km/h3.9 1006 hPa0.6 mm
02/12/2021 07:444.0 °C95 %3.3 °C-NNO10 km/h3.9 1006 hPa0.6 mm
02/12/2021 07:314.1 °C95 %3.3 °C---3.9 1006 hPa0.6 mm
02/12/2021 07:294.1 °C95 %3.3 °C-NO10 km/h3.9 1006 hPa0.6 mm
02/12/2021 07:164.1 °C95 %3.3 °C-NO5 km/h3.9 1006 hPa0.6 mm
02/12/2021 07:144.2 °C95 %3.3 °C-NO10 km/h4.4 1006 hPa0.6 mm
02/12/2021 07:014.2 °C95 %3.3 °C-NNO2 km/h4.4 1005 hPa0.6 mm
02/12/2021 06:594.2 °C95 %3.3 °C-NO10 km/h4.4 1005 hPa0.6 mm
02/12/2021 06:464.3 °C95 %3.3 °C---4.4 1005 hPa0.6 mm
02/12/2021 06:444.3 °C95 %3.3 °C-ONO5 km/h4.4 1005 hPa0.6 mm
02/12/2021 06:314.3 °C95 %3.9 °C---4.4 1005 hPa0.6 mm
02/12/2021 06:294.3 °C95 %3.9 °C-ONO5 km/h4.4 1005 hPa0.6 mm
02/12/2021 06:164.3 °C95 %3.9 °C---4.4 1005 hPa0.6 mm
02/12/2021 06:144.4 °C95 %3.9 °C-ONO5 km/h4.4 1005 hPa0.6 mm
02/12/2021 06:014.4 °C95 %3.9 °C---4.4 1005 hPa0.6 mm
02/12/2021 05:594.4 °C95 %3.9 °C-NO5 km/h4.4 1005 hPa0.6 mm
02/12/2021 05:464.4 °C95 %3.9 °C---4.4 1005 hPa0.6 mm
02/12/2021 05:444.5 °C95 %3.9 °C-ONO5 km/h4.4 1005 hPa0.6 mm
02/12/2021 05:314.6 °C95 %3.9 °C---4.4 1005 hPa0.6 mm
02/12/2021 05:294.6 °C95 %3.9 °C-ONO5 km/h4.4 1005 hPa0.6 mm
02/12/2021 05:164.6 °C95 %3.9 °C---4.4 1005 hPa0.6 mm
02/12/2021 05:144.6 °C95 %3.9 °C-NO5 km/h4.4 1005 hPa0.6 mm
02/12/2021 05:014.7 °C94 %3.9 °C---5.0 1005 hPa0.4 mm
02/12/2021 04:594.7 °C94 %3.9 °C-ONO5 km/h5.0 1005 hPa0.4 mm
02/12/2021 04:464.8 °C94 %3.9 °C-ONO2 km/h5.0 1005 hPa0.4 mm
02/12/2021 04:444.8 °C94 %3.9 °C-ONO5 km/h5.0 1005 hPa0.4 mm
02/12/2021 04:314.9 °C94 %3.9 °C-ONO2 km/h5.0 1005 hPa0.2 mm
02/12/2021 04:294.9 °C94 %3.9 °C-ONO5 km/h5.0 1005 hPa0.2 mm
02/12/2021 04:165.1 °C94 %4.4 °C-NO2 km/h5.0 1005 hPa-
02/12/2021 04:145.1 °C94 %4.4 °C-NO5 km/h5.0 1005 hPa-
02/12/2021 04:015.2 °C93 %4.4 °C---5.0 1005 hPa-
02/12/2021 03:595.2 °C93 %4.4 °C-NO5 km/h5.0 1005 hPa-
02/12/2021 03:465.1 °C93 %3.9 °C-ONO2 km/h5.0 1005 hPa-
02/12/2021 03:445.2 °C93 %4.4 °C-ONO5 km/h5.0 1005 hPa-
02/12/2021 03:315.1 °C93 %3.9 °C-O2 km/h5.0 1005 hPa-
02/12/2021 03:295.1 °C93 %3.9 °C-O5 km/h5.0 1005 hPa-
02/12/2021 03:165.1 °C93 %3.9 °C---5.0 1005 hPa-
02/12/2021 03:145.0 °C93 %3.9 °C-O5 km/h5.0 1005 hPa-
02/12/2021 03:015.1 °C93 %3.9 °C---5.0 1005 hPa-
02/12/2021 02:595.1 °C93 %3.9 °C-O5 km/h5.0 1005 hPa-
02/12/2021 02:465.1 °C93 %3.9 °C---5.0 1004 hPa-
02/12/2021 02:445.2 °C93 %4.4 °C-O5 km/h5.0 1004 hPa-
02/12/2021 02:315.3 °C92 %3.9 °C---5.6 1004 hPa-
02/12/2021 02:295.3 °C92 %4.4 °C-O5 km/h5.6 1004 hPa-
02/12/2021 02:165.4 °C92 %4.4 °C---5.6 1004 hPa-
02/12/2021 02:145.4 °C92 %4.4 °C-ONO5 km/h5.6 1004 hPa-
02/12/2021 02:015.5 °C92 %4.4 °C---5.6 1004 hPa-
02/12/2021 01:595.5 °C92 %4.4 °C-O5 km/h5.6 1004 hPa-
02/12/2021 01:485.6 °C93 %4.4 °C-O5 km/h5.6 1004 hPa-
02/12/2021 01:445.6 °C93 %4.4 °C-OSO2 km/h5.6 1004 hPa-
02/12/2021 01:335.5 °C93 %4.4 °C-O2 km/h5.6 1004 hPa-
02/12/2021 01:295.4 °C93 %4.4 °C-O2 km/h5.6 1004 hPa-
02/12/2021 01:195.4 °C94 %4.4 °C---5.6 1004 hPa-
02/12/2021 01:155.3 °C94 %4.4 °C-O2 km/h5.6 1004 hPa-
02/12/2021 01:065.3 °C93 %4.4 °C---5.6 1005 hPa-
02/12/2021 01:015.2 °C93 %4.4 °C-O2 km/h5.0 1005 hPa-
02/12/2021 00:485.2 °C93 %4.4 °C---5.0 1005 hPa-
02/12/2021 00:445.2 °C92 %3.9 °C-O2 km/h5.0 1005 hPa-
02/12/2021 00:315.3 °C92 %4.4 °C---5.6 1005 hPa-
02/12/2021 00:295.3 °C92 %4.4 °C---5.6 1005 hPa-
02/12/2021 00:165.4 °C92 %4.4 °C---5.6 1005 hPa-
02/12/2021 00:145.5 °C92 %4.4 °C---5.6 1005 hPa-
02/12/2021 00:015.6 °C92 %4.4 °C---5.6 1005 hPa-


Minima :

Température : 2.9 °C
Humidité : 81 %
Point de rosée : 1.1 °C
Vent moyen : 3 km/h
Windchill : 1.1
Pression atm. : 1004 hPa
Maxima :

Température : 5.6 °C
Humidité : 96 %
Point de rosée : 4.4 °C
Vent moyen : 11 km/h
Windchill : 5.6
Pression atm. : 1012 hPa
Rafales max : 29 km/h
Cumul de pluie sur 24H : 1.4 mm

Culan est une commune du département Cher (18).
La station météorologique du réseau de l'association la plus proche de Culan est celle de Beddes



Icône Facebook Association Météo Centre Icône Twitter Association Météo Centre Icône Chaîne Youtube Association Météo Centre Icône contact Association Météo Centre Icône Insta Association Météo Centre